Mid Labrador Coast: Past 24 Hour Conditions

 

Blanc-Sablon Airport

04:00 PM AST 23 September 2014
This table is a summary of hourly weather conditions for the past 24 hours.
Date / Time
(AST)
Wind(knots) Conditions Visibility(km) Pressure(kPa) Air tempC) Relative humidity(%) Dew pointC)
23 September 2014
16:00 WSW 11 gust 16 Light Rain 24 100.8 9 81 6
15:00 WSW 14 gust 20 Mostly Cloudy 24 100.7 9 75 5
14:00 WSW 16 Mostly Cloudy 24 100.6 11 65 4
13:00 WSW 15 gust 21 Mostly Cloudy 24 100.5 10 65 4
12:00 W 14 gust 23 Partly Cloudy 24 100.4 10 63 3
11:00 W 18 gust 24 Mostly Cloudy 24 100.3 9 69 4
10:00 W 23 gust 31 Mostly Cloudy 24 100.1 8 70 3
9:00 W 23 gust 30 Cloudy 24 100.0 8 77 4
8:00 W 19 gust 32 Cloudy 16 99.7 8 94 7
7:00 SW 30 gust 37 Cloudy 13 99.5 9 92 7
6:00 SW 33 gust 45 Cloudy 19 99.4 9 87 7
5:00 WSW 30 gust 43 Cloudy 16 99.3 9 86 7
4:00 SW 27 gust 36 Cloudy 13 99.2 10 92 9
3:00 SW 24 gust 31 Fog 6 99.1 11 97 11
2:00 SW 23 gust 33 Fog 10 99.1 12 99 12
1:00 SW 25 gust 34 Light Drizzle 5 99.1 12 100 12
0:00 SW 13 gust 20 Light Drizzle 0.2 99.2 12 100 12
22 September 2014
23:00 SW 16 gust 24 Light Drizzle 0.2 99.2 12 100 12
22:00 SW 21 gust 28 Light Drizzle 0.2 99.2 12 100 12
21:00 SW 17 gust 24 Light Drizzle 0.2 99.2 12 100 12
20:00 SW 18 gust 24 Light Drizzle 0.2 99.2 12 100 12
19:00 SW 18 gust 25 Light Drizzle 0.2 99.2 11 100 11
18:00 SW 20 gust 30 Light Drizzle 0.4 99.0 11 100 11
17:00 SW 22 gust 31 Light Drizzle 0.4 98.9 11 100 11
16:00 SW 21 gust 32 Light Drizzle 0.8 98.8 13 100 13
 
Map of Atlantic - Newfoundland marine weather areas Southwestern Grand Banks - 44138 Banquereau - 44139 Tail of the Bank - 44140 Nickerson Bank - 44251 Northeast Burgeo Bank - 44255 Blanc-Sablon Airport Cap Whittle Chevery Natashquan Airport Heath Point Miscou Island Grand Étang Ingonish Beach North Mountain St.Paul Island J.A. Douglas McCurdy Sydney Airport Charlottetown Airport East Point North Cape Argentia Bonavista Burgeo Cape Race Corner Brook Daniel's Harbour Englee Ferolle Point La Scie Port aux Basques Rocky Harbour Sagona Island St. Anthony Airport St. John's Int'l Airport St. Lawrence Stephenville Airport Twillingate Winterland Wreckhouse Cartwright Airport Mary's Harbour Grates Cove Pool's Island Marticot Island Long Pond Îles de la Madeleine Airport
Legend: buoyBuoy land stationLand Station